Theta_e
322 320 319 319 321 321 321 321 319 322 320 321 321 321 323 324 327 329 340 341 336 332 345 342 343 341 338 338 346 349 349 349 347 346 342 335 333 336 336 331 330 329 326 325 322 321 319 316 314
323 324 320 319 319 319 319 319 321 321 321 320 321 321 323 324 323 327 336 340 334 331 331 348 341 342 338 335 333 337 340 341 340 336 329 328 329 328 327 326 326 324 322 319 317 315 313 313 314
324 326 326 325 319 317 318 318 321 320 319 319 322 323 323 328 337 329 338 334 333 339 344 342 341 342 338 334 330 329 329 328 328 326 323 325 324 324 324 324 322 320 318 315 314 313 314 315 316
324 327 323 325 319 318 318 320 321 319 320 320 322 327 326 337 333 342 340 335 331 340 343 335 338 342 339 334 330 327 326 325 323 322 322 322 321 321 322 320 319 316 316 315 315 316 316 317 318
324 326 326 326 322 320 318 319 319 319 321 322 325 328 327 330 338 340 340 335 334 339 342 329 335 340 338 335 331 327 327 324 321 322 322 321 321 321 321 320 317 316 315 316 316 316 317 318 320
326 325 328 327 324 319 320 320 321 323 326 327 328 328 328 327 340 338 338 335 336 339 342 344 334 338 338 335 331 329 328 324 321 321 320 321 321 320 320 319 317 316 315 315 315 316 317 318 320
327 326 324 325 324 324 323 326 328 327 327 327 326 328 327 329 338 336 335 334 337 339 340 344 343 342 337 335 332 330 329 326 321 321 321 321 321 320 319 318 317 316 316 315 315 315 317 318 320
328 327 325 324 323 324 325 327 327 326 326 325 324 327 325 329 338 336 335 336 337 339 338 342 346 347 348 345 332 331 331 329 325 324 323 322 322 321 321 320 319 316 315 317 316 316 317 318 320
320 327 326 326 325 325 326 326 325 324 324 324 324 324 322 331 337 338 336 335 335 337 340 343 346 348 348 346 342 331 331 331 328 329 328 327 335 334 331 326 321 318 316 317 317 318 319 320 322
320 322 322 324 326 326 325 323 324 322 323 323 323 321 321 320 329 339 338 336 334 335 339 342 346 346 348 347 347 344 343 343 343 343 341 342 344 343 341 337 324 321 318 317 319 320 323 326 332
316 318 320 321 318 319 321 322 319 321 322 322 320 320 319 321 323 333 339 337 336 334 336 339 344 345 346 344 346 347 346 347 346 345 343 345 343 334 339 340 336 332 327 331 329 330 331 332 333
313 314 315 318 315 314 316 316 316 317 319 318 317 318 319 320 323 324 330 337 336 335 335 338 337 339 337 344 344 345 344 346 343 339 334 338 333 333 341 340 339 336 335 335 333 332 332 332 333
312 312 311 312 311 312 311 314 317 315 315 315 317 317 317 318 320 321 324 334 337 336 335 333 332 332 337 340 341 341 339 335 332 328 327 329 331 331 333 336 336 334 335 332 332 331 332 331 332
310 311 311 311 312 312 312 313 313 314 314 314 316 317 318 319 320 321 324 330 335 336 335 332 327 328 330 333 338 333 335 328 326 326 327 327 326 329 329 327 331 329 327 330 328 331 331 330 330
310 311 310 310 311 311 311 311 312 312 313 314 315 315 315 316 316 317 318 324 332 331 334 334 330 328 325 324 326 332 332 331 331 328 322 324 327 325 324 329 328 331 328 324 323 325 327 330 330
310 309 310 310 310 310 311 311 312 311 312 312 313 314 314 315 316 316 316 318 320 325 332 334 338 335 331 330 326 322 329 330 326 323 324 322 321 322 321 321 323 323 322 326 330 331 331 330 330
310 311 311 311 311 312 311 312 312 312 311 313 313 313 313 315 316 316 316 316 314 315 325 338 342 338 339 333 330 330 327 324 322 322 322 321 321 323 324 325 327 326 325 326 331 332 331 332 332
310 310 310 310 310 312 311 312 311 312 311 312 312 312 313 314 315 315 315 315 314 313 314 326 335 339 341 336 332 330 331 325 325 322 322 323 329 333 330 330 330 330 332 330 332 333 334 334 333
310 310 310 311 311 311 311 311 311 311 311 312 312 312 313 314 314 313 314 314 314 313 313 314 332 345 346 344 340 336 333 332 332 327 324 325 334 333 333 333 334 333 334 336 336 336 336 336 335
310 310 311 311 311 310 310 311 311 311 311 312 313 313 313 313 312 313 313 315 316 315 314 315 316 323 341 346 345 343 341 337 333 334 329 334 337 336 334 336 336 334 336 338 338 337 338 337 336
311 311 311 310 311 310 311 309 310 309 311 311 312 312 312 312 312 313 315 316 317 318 316 316 316 316 318 334 343 344 343 342 341 339 336 335 336 336 336 337 339 340 339 341 340 339 339 341 338
310 311 311 310 310 308 310 307 310 310 310 311 311 313 312 313 312 315 315 315 315 315 314 313 315 317 318 317 330 340 343 344 343 342 339 342 338 338 340 338 341 342 341 342 341 340 340 340 341
309 311 311 310 311 311 309 311 310 311 310 311 312 313 314 315 315 315 315 313 312 313 314 312 312 316 318 319 320 329 340 342 343 343 342 342 341 341 340 341 343 343 343 343 341 340 340 340 340
310 310 310 309 311 310 310 311 310 310 311 311 311 313 315 315 315 314 313 313 313 313 313 314 315 313 317 318 324 325 329 336 338 340 341 340 341 342 342 342 344 345 343 343 341 341 340 340 339
310 311 310 309 309 309 312 310 310 311 311 310 311 312 315 315 315 315 314 314 313 314 315 315 315 316 315 317 318 327 329 330 334 337 339 339 341 343 344 343 345 344 341 343 340 340 340 340 340
310 311 311 310 309 309 309 310 311 311 311 312 313 314 315 315 313 314 314 313 313 314 315 315 315 316 318 319 318 323 329 332 334 337 337 337 337 339 341 340 344 343 342 338 339 341 341 341 341
311 313 310 313 312 313 311 311 311 311 311 312 313 313 314 313 313 314 314 313 313 315 316 316 315 316 317 319 320 322 326 333 334 338 338 337 337 339 339 341 341 340 339 337 341 343 344 342 340
311 311 315 315 315 313 311 311 312 311 311 311 311 312 312 312 314 315 314 312 313 316 316 317 317 316 317 318 319 321 324 331 333 336 340 338 339 340 341 339 337 342 337 344 344 345 345 343 341
311 312 313 313 314 314 313 312 312 312 311 312 312 312 312 313 314 314 314 313 315 316 318 319 321 319 316 317 318 321 324 329 333 334 336 339 340 340 341 340 342 340 345 346 346 343 342 341 341
311 312 313 316 315 316 317 314 311 312 311 312 312 312 311 313 313 313 313 313 317 316 315 317 318 321 318 316 317 320 324 328 331 333 334 337 339 340 340 341 343 346 347 347 345 343 341 339 338
Wind_Speed
7 5 2 3 3 1 3 4 1 4 2 2 5 7 7 11 6 4 1 20 25 37 37 39 40 40 39 37 36 36 34 32 30 29 26 24 22 21 20 19 18 15 14 13 12 12 10 9 8
5 4 4 1 3 5 5 2 7 6 4 11 7 3 7 10 12 17 4 21 31 39 44 36 41 41 40 39 38 37 35 32 30 28 27 26 24 22 21 19 17 15 15 14 13 12 12 11 10
3 3 1 3 3 7 2 6 6 4 8 4 3 4 5 6 10 8 11 29 33 36 38 39 42 41 40 40 39 37 36 34 31 29 28 26 24 22 20 19 17 15 14 13 12 12 12 11 10
3 3 2 3 11 3 3 1 6 8 4 4 4 9 5 4 21 16 12 24 39 36 35 40 42 41 41 40 40 39 37 35 33 30 28 26 24 22 21 19 17 15 14 13 11 11 11 11 10
1 2 4 3 5 3 4 6 6 8 7 7 6 9 7 13 30 13 10 26 40 36 35 42 45 43 41 40 40 39 38 35 32 30 28 25 23 21 20 19 16 15 12 11 11 10 9 9 8
3 1 5 9 8 2 5 1 5 2 5 9 8 14 3 19 22 11 7 23 30 36 34 35 45 43 41 40 39 39 38 36 33 31 28 25 23 21 19 18 16 14 13 12 11 10 9 8 8
5 4 12 13 5 3 3 2 3 3 8 3 11 10 6 18 17 8 6 15 24 30 33 33 37 40 42 40 40 39 37 36 33 31 28 26 24 22 20 17 15 14 13 13 12 11 10 9 9
3 3 11 9 11 8 4 1 3 6 9 8 6 4 11 15 10 5 7 11 18 22 28 31 30 30 29 32 40 38 37 35 32 31 28 26 24 22 21 18 16 15 14 13 12 12 12 10 10
3 7 12 16 10 5 4 4 4 3 9 6 3 7 11 13 6 2 6 10 13 17 23 25 28 28 27 27 31 38 36 34 32 30 28 26 21 20 19 20 18 16 14 14 13 12 12 11 11
8 9 15 5 8 8 6 2 8 7 9 12 11 8 13 17 6 5 6 12 15 20 20 23 24 26 25 24 24 29 28 26 25 23 22 21 18 17 16 17 18 16 15 14 14 14 13 12 10
5 12 7 9 4 4 11 8 5 8 13 7 14 17 18 15 11 5 6 13 18 20 20 21 24 25 24 24 22 22 22 22 21 23 22 21 18 19 17 14 15 16 17 14 14 14 15 14 13
7 5 6 11 5 4 4 4 10 12 17 13 17 16 11 14 11 8 8 11 15 22 20 21 28 28 31 22 23 23 24 22 21 25 26 23 24 19 16 15 14 15 14 15 15 14 15 14 14
6 2 2 3 6 6 6 14 19 15 9 14 10 16 16 15 13 13 5 10 11 17 22 26 32 33 30 31 24 26 29 31 28 28 28 26 23 21 20 18 17 17 16 16 16 15 15 14 14
2 4 6 5 8 7 7 16 7 4 9 12 12 14 12 12 12 13 8 8 11 15 19 29 36 36 34 33 32 33 30 34 32 30 28 28 26 24 22 23 22 21 20 18 17 15 14 14 14
1 5 6 7 5 6 7 12 10 5 5 5 5 7 7 7 9 8 10 8 8 12 20 25 32 35 39 40 40 36 33 31 27 28 29 29 28 26 26 22 21 20 18 20 19 18 16 15 15
1 2 3 5 3 1 5 8 2 9 10 9 9 5 9 11 10 10 13 11 9 8 16 21 24 28 36 37 43 43 40 33 30 30 30 29 29 28 27 32 29 22 20 19 17 15 13 14 15
2 1 1 1 5 5 3 6 4 7 7 9 9 7 7 10 11 11 13 15 17 17 8 13 20 20 30 39 38 36 41 35 36 34 32 30 29 31 33 33 29 23 17 20 16 15 14 13 14
2 2 1 4 4 9 12 11 11 13 8 8 10 8 5 7 11 15 14 16 17 16 15 7 12 22 34 33 34 32 31 40 40 37 36 35 20 34 40 29 26 22 18 20 17 17 13 13 13
3 3 3 3 2 11 14 18 18 14 13 11 9 7 6 8 9 13 16 15 15 16 15 10 8 21 24 20 14 18 31 34 29 34 38 39 30 44 28 22 12 22 22 19 18 15 14 13 10
5 4 3 5 5 7 15 19 20 18 13 12 9 6 9 7 9 10 15 15 17 17 19 15 10 8 15 18 21 22 24 28 36 27 35 34 34 30 28 26 24 31 24 21 18 18 13 12 13
5 5 3 5 5 9 9 11 1 9 2 5 8 9 9 9 7 8 10 16 18 18 19 21 16 12 11 19 21 20 15 17 20 28 35 40 37 37 35 27 25 30 24 18 19 20 19 13 12
5 7 3 5 8 7 4 6 8 2 7 4 5 5 8 12 8 7 9 13 16 19 22 22 23 20 12 10 20 24 24 23 28 29 34 27 38 40 36 29 29 29 24 20 18 19 18 15 14
0 4 3 6 9 5 6 5 1 6 6 3 10 10 9 5 6 7 8 11 16 16 19 23 25 24 19 13 14 21 26 27 28 23 23 25 33 37 31 31 32 31 26 21 18 18 19 18 16
3 1 3 1 2 5 0 4 3 6 5 4 10 6 7 5 6 8 12 12 14 17 16 19 22 27 24 20 14 18 25 27 26 28 28 31 31 29 31 30 30 29 24 22 17 18 18 18 19
2 3 4 3 3 3 1 9 11 9 9 13 14 11 4 6 8 11 15 16 19 18 19 18 17 24 26 24 22 15 21 29 30 30 27 24 24 24 27 29 30 26 24 19 16 17 17 18 20
4 3 3 4 4 7 5 10 3 1 5 11 11 12 10 11 12 14 16 17 17 18 19 20 21 20 20 22 25 20 18 19 25 29 29 28 30 27 27 31 26 24 20 17 15 14 16 17 19
5 5 2 3 5 7 7 11 14 11 8 7 10 7 8 12 15 15 16 17 16 20 23 20 22 24 22 21 22 22 21 20 23 27 30 29 29 24 28 25 23 21 19 15 16 16 17 16 18
6 9 3 3 4 6 7 16 13 13 11 12 7 7 8 13 16 17 14 14 16 19 22 22 21 25 26 25 23 22 21 21 24 25 25 25 26 22 20 21 22 21 16 16 17 16 15 15 18
5 4 2 2 4 5 8 7 2 12 12 11 11 10 14 17 15 15 15 15 17 16 18 21 23 24 23 24 24 24 24 22 20 22 23 22 20 21 21 22 21 18 18 19 19 20 16 17 19
3 9 10 7 6 5 5 15 11 13 5 11 21 21 18 16 16 16 17 20 18 18 20 21 22 23 22 24 24 26 25 21 20 23 23 22 23 20 20 20 19 18 20 21 21 17 17 21 20
Wind_Direction
350 35 49 310 202 223 237 222 132 205 253 207 282 280 266 283 217 222 9 184 171 164 170 177 178 176 172 169 166 166 165 165 166 164 165 164 164 163 164 164 163 161 155 152 149 147 145 141 136
7 64 74 314 219 219 221 233 208 208 301 312 290 249 271 274 244 268 250 172 170 168 174 174 180 178 176 174 171 169 168 167 167 168 166 166 165 167 167 165 165 162 159 158 155 150 147 142 138
65 68 180 270 191 227 212 213 233 192 305 254 294 284 282 335 333 282 317 181 167 169 172 175 180 181 180 177 173 171 170 169 170 170 169 169 168 168 169 168 167 165 164 159 156 150 147 143 142
146 142 110 233 237 204 220 243 228 301 324 233 324 299 296 65 330 295 301 179 167 169 173 177 181 183 184 181 176 173 172 170 170 171 172 172 171 172 173 172 173 170 167 162 160 156 153 151 146
69 121 228 238 268 304 248 279 270 299 288 289 332 316 298 331 335 307 201 181 168 170 173 177 183 185 187 185 180 176 175 172 172 174 175 176 176 177 180 179 178 177 173 170 169 170 163 157 156
180 187 219 238 247 243 277 277 293 323 297 310 342 326 332 340 352 357 180 180 174 168 171 174 184 186 189 189 186 182 179 177 177 178 180 182 184 184 187 187 188 184 180 184 182 182 178 177 176
215 199 234 249 202 256 244 26 298 320 316 320 337 314 322 352 352 21 133 178 177 172 171 174 181 188 191 192 192 188 186 183 183 184 185 188 191 191 194 194 195 198 197 198 191 192 196 194 196
212 216 231 236 228 229 215 246 297 280 298 319 336 347 335 342 347 28 131 159 177 182 177 175 179 186 192 196 197 195 192 191 190 190 192 194 197 199 199 200 203 207 212 215 209 206 205 206 206
168 226 233 234 208 209 164 243 286 291 289 291 281 307 326 343 328 0 161 169 183 187 183 181 182 185 191 196 200 200 200 198 197 199 199 200 199 204 205 209 210 212 218 225 227 226 222 216 215
203 226 226 220 225 199 199 204 290 290 296 290 283 292 320 322 330 279 234 193 201 201 197 189 188 187 192 195 199 200 202 202 200 201 204 202 203 203 204 212 216 221 226 232 234 237 233 227 223
191 234 224 221 244 279 281 231 255 275 283 277 309 322 327 329 335 294 254 241 206 213 205 201 196 194 196 198 198 200 201 200 201 203 205 206 209 211 212 212 214 218 226 222 226 228 230 230 230
230 231 239 250 278 309 262 312 254 254 267 290 298 303 308 318 323 333 268 244 219 206 212 210 208 204 207 205 206 205 202 205 205 209 210 212 216 217 215 216 215 218 219 227 225 228 229 234 240
221 231 289 283 292 268 275 253 249 276 283 288 296 301 301 301 301 315 300 232 213 217 211 217 217 212 210 214 213 214 211 212 214 219 219 220 223 223 225 229 226 226 226 228 232 233 236 238 242
174 260 271 275 257 251 255 263 278 233 313 296 295 296 295 292 309 315 331 306 239 232 224 225 226 225 221 220 219 223 220 222 219 221 224 227 230 232 231 233 236 234 234 234 236 236 239 242 242
260 272 281 248 261 253 267 267 253 18 341 292 354 331 337 347 345 349 335 329 291 275 250 235 222 224 225 230 228 226 227 225 224 229 231 235 235 238 241 243 239 244 247 243 243 241 242 241 243
219 190 218 117 6 346 213 254 139 31 7 330 322 328 325 327 329 339 340 346 354 313 264 251 226 230 232 225 226 229 230 228 231 233 236 237 245 245 249 244 243 233 245 249 242 239 236 239 240
31 171 322 62 69 356 341 293 273 354 349 314 305 312 317 316 321 333 339 345 351 358 306 256 227 230 250 237 227 228 229 233 233 236 241 244 253 251 250 245 245 239 243 246 244 240 233 237 241
145 144 279 305 17 331 304 283 294 299 278 270 287 298 308 308 306 320 329 336 339 350 3 295 263 239 245 245 226 232 234 232 237 235 241 241 260 265 250 238 245 242 232 233 237 237 237 233 240
175 189 221 278 267 327 299 299 299 286 275 267 257 269 288 288 290 308 316 326 333 336 349 351 237 223 218 218 233 233 226 229 230 234 242 243 224 242 237 235 246 289 248 228 235 234 235 236 232
191 205 224 276 260 295 296 296 287 283 266 255 220 245 274 278 275 292 309 322 325 325 329 332 334 299 243 230 224 224 235 224 225 229 234 237 238 241 248 245 234 239 235 229 227 222 223 231 213
208 222 218 278 299 274 299 293 62 329 195 213 262 278 291 280 269 291 304 314 322 326 330 323 323 312 278 238 229 226 244 238 225 225 233 241 249 253 246 241 241 236 228 228 221 219 217 226 217
243 206 231 283 312 306 346 296 269 156 310 244 300 303 301 299 278 280 305 321 327 322 321 320 319 314 307 272 234 225 218 232 230 220 226 237 253 248 238 247 237 235 226 224 220 221 219 214 219
265 164 279 288 289 291 260 257 198 221 224 184 326 317 301 298 306 307 318 315 313 319 319 319 316 309 307 296 248 231 228 225 238 243 237 239 246 243 248 245 236 230 224 227 217 219 216 215 216
103 259 289 170 252 248 224 252 213 209 204 269 310 288 286 306 321 325 318 318 314 318 316 316 318 307 305 307 284 242 231 228 228 233 237 243 247 245 239 229 228 220 222 222 221 223 218 216 215
130 318 302 244 220 304 141 290 258 230 254 289 295 287 311 331 319 327 326 324 325 324 321 319 314 300 300 301 296 275 245 232 228 227 231 230 229 229 226 220 218 215 219 218 220 215 216 213 213
194 247 265 285 263 294 263 252 246 72 285 284 285 282 300 319 333 322 321 311 314 320 317 311 307 294 287 289 293 286 273 249 233 231 229 227 230 235 236 232 218 212 205 209 214 212 209 207 212
156 211 27 278 257 269 240 259 275 278 297 288 301 297 298 335 327 328 324 306 306 315 314 309 304 297 284 277 284 277 269 249 235 231 232 231 238 236 235 222 208 203 202 207 202 196 197 200 206
242 145 182 193 258 258 258 271 265 300 312 308 323 312 322 328 329 331 329 306 302 308 309 311 307 296 288 281 277 272 268 255 241 231 231 227 225 226 213 206 201 198 195 193 186 188 191 200 208
180 202 159 275 245 269 297 277 359 305 317 316 321 321 318 319 322 317 320 306 296 301 309 314 314 304 289 282 278 270 265 255 246 234 232 230 223 214 210 205 196 190 185 183 181 186 194 202 201
261 246 233 233 212 235 286 274 289 280 319 317 309 305 309 305 311 313 314 303 296 296 301 310 317 312 295 286 280 268 264 257 242 231 227 221 215 207 200 197 192 181 181 180 181 183 196 193 193